TimeEST,TemperatureF,Dew PointF,Humidity,Sea Level PressureIn,VisibilityMPH,Wind Direction,Wind SpeedMPH,Gust SpeedMPH,PrecipitationIn,Events,Conditions,WindDirDegrees,DateUTC
12:00 AM,32.0,25.0,75,29.97,-9999.0,NW,8.1,-,N/A,,Scattered Clouds,320,2014-02-06 05:00:00
12:24 AM,32.0,24.8,75,29.98,-9999.0,NW,9.2,18.4,N/A,,Mostly Cloudy,320,2014-02-06 05:24:00
12:43 AM,30.2,24.8,80,30.00,-9999.0,NW,12.7,19.6,N/A,,Mostly Cloudy,310,2014-02-06 05:43:00
1:00 AM,30.9,21.9,69,30.01,-9999.0,NW,11.5,24.2,N/A,,Overcast,320,2014-02-06 06:00:00
2:00 AM,28.9,21.0,72,30.05,-9999.0,NW,9.2,-,N/A,,Mostly Cloudy,320,2014-02-06 07:00:00
3:00 AM,27.0,19.0,72,30.09,-9999.0,NW,10.4,18.4,N/A,,Scattered Clouds,310,2014-02-06 08:00:00
4:00 AM,26.1,18.0,71,30.14,-9999.0,NW,11.5,16.1,N/A,,Overcast,310,2014-02-06 09:00:00
6:06 AM,23.0,15.1,72,30.20,-9999.0,Variable,6.9,18.4,N/A,,Scattered Clouds,0,2014-02-06 11:06:00
7:00 AM,21.9,14.0,72,30.23,-9999.0,Variable,4.6,-,N/A,,Clear,0,2014-02-06 12:00:00
8:00 AM,21.9,12.9,68,30.26,-9999.0,Variable,4.6,-,N/A,,Clear,0,2014-02-06 13:00:00
9:00 AM,24.1,12.0,60,30.27,-9999.0,NNW,9.2,18.4,N/A,,Partly Cloudy,330,2014-02-06 14:00:00
10:00 AM,23.0,10.9,60,30.30,-9999.0,Variable,6.9,-,N/A,,Scattered Clouds,0,2014-02-06 15:00:00
11:00 AM,25.0,12.0,58,30.30,-9999.0,Variable,4.6,-,N/A,,Scattered Clouds,0,2014-02-06 16:00:00
12:00 PM,26.1,12.9,58,30.28,-9999.0,WNW,4.6,-,N/A,,Clear,300,2014-02-06 17:00:00
1:00 PM,27.0,14.0,58,30.26,-9999.0,West,5.8,-,N/A,,Clear,280,2014-02-06 18:00:00
2:00 PM,28.9,14.0,54,30.27,-9999.0,WNW,6.9,-,N/A,,Clear,300,2014-02-06 19:00:00
7:00 PM,21.9,14.0,72,30.27,-9999.0,Calm,Calm,-,N/A,,Clear,0,2014-02-07 00:00:00
8:00 PM,19.9,15.1,81,30.27,-9999.0,Calm,Calm,-,N/A,,Clear,0,2014-02-07 01:00:00
9:00 PM,19.0,15.1,85,30.28,-9999.0,Calm,Calm,-,N/A,,Clear,0,2014-02-07 02:00:00
10:00 PM,19.9,16.0,85,30.29,-9999.0,Calm,Calm,-,N/A,,Clear,0,2014-02-07 03:00:00
11:00 PM,21.9,16.0,78,30.28,-9999.0,Calm,Calm,-,N/A,,Clear,0,2014-02-07 04:00:00